Hourly Weather Cepel

Today, 22 June, Tuesday

Time Temperature Precipitation Wind Pressure Humidity
00:00 +12°C° 0 mm 1 mps 749 mmHg 83%
01:00 +12°C° 0 mm 1 mps 749 mmHg 86%
02:00 +12°C° 0.1 mm 1 mps 748 mmHg 87%
03:00 +13°C° 0.1 mm 1 mps 748 mmHg 87%
04:00 +13°C° 0 mm 1 mps 748 mmHg 85%
05:00 +15°C° 0 mm 1 mps 748 mmHg 81%
06:00 +16°C° 0 mm 1 mps 748 mmHg 76%
07:00 +19°C° 0 mm 1 mps 748 mmHg 72%
08:00 +21°C° 0 mm 1 mps 748 mmHg 67%
09:00 +23°C° 0 mm 1 mps 748 mmHg 62%
10:00 +25°C° 0 mm 2 mps 748 mmHg 56%
11:00 +25°C° 0 mm 2 mps 748 mmHg 52%
12:00 +26°C° 0 mm 3 mps 748 mmHg 48%
13:00 +27°C° 0 mm 3 mps 748 mmHg 44%
14:00 +28°C° 0 mm 3 mps 748 mmHg 43%
15:00 +28°C° 0 mm 4 mps 748 mmHg 42%
16:00 +28°C° 0 mm 4 mps 748 mmHg 41%
17:00 +27°C° 0 mm 4 mps 748 mmHg 47%
18:00 +26°C° 0 mm 3 mps 747 mmHg 52%
19:00 +25°C° 0 mm 2 mps 747 mmHg 58%
20:00 +23°C° 0.1 mm 2 mps 747 mmHg 68%
21:00 +19°C° 0.1 mm 2 mps 748 mmHg 78%
22:00 +18°C° 0.1 mm 1 mps 748 mmHg 87%
23:00 +18°C° 0 mm 1 mps 748 mmHg 89%

Tomorrow, 23 June, Wednesday

Time Temperature Precipitation Wind Pressure Humidity
00:00 +16°C° 0 mm 1 mps 748 mmHg 90%
01:00 +15°C° 0 mm 1 mps 748 mmHg 91%
02:00 +15°C° 0 mm 1 mps 748 mmHg 91%
03:00 +15°C° 0 mm 1 mps 749 mmHg 91%
04:00 +15°C° 0 mm 2 mps 749 mmHg 91%
05:00 +15°C° 0 mm 2 mps 749 mmHg 81%
06:00 +16°C° 0 mm 3 mps 749 mmHg 72%
07:00 +17°C° 0 mm 3 mps 750 mmHg 63%
08:00 +18°C° 0 mm 3 mps 750 mmHg 57%
09:00 +20°C° 0 mm 2 mps 750 mmHg 51%
10:00 +21°C° 0 mm 2 mps 750 mmHg 46%
11:00 +23°C° 0 mm 1 mps 750 mmHg 42%
12:00 +24°C° 0 mm 1 mps 750 mmHg 38%
13:00 +26°C° 0 mm 1 mps 750 mmHg 35%
14:00 +26°C° 0 mm 1 mps 750 mmHg 34%
15:00 +26°C° 0 mm 1 mps 750 mmHg 33%
16:00 +26°C° 0 mm 1 mps 750 mmHg 32%
17:00 +25°C° 0 mm 1 mps 750 mmHg 39%
18:00 +25°C° 0 mm 1 mps 749 mmHg 46%
19:00 +24°C° 0 mm 1 mps 749 mmHg 53%
20:00 +20°C° 0 mm 0 mps 749 mmHg 56%
21:00 +17°C° 0 mm 0 mps 749 mmHg 59%
22:00 +15°C° 0 mm 0 mps 749 mmHg 61%
23:00 +15°C° 0 mm 0 mps 749 mmHg 62%

Day after tomorrow, 24 June, Thursday

Time Temperature Precipitation Wind Pressure Humidity
00:00 +15°C° 0 mm 1 mps 749 mmHg 63%
01:00 +15°C° 0 mm 1 mps 749 mmHg 64%
02:00 +14°C° 0 mm 1 mps 749 mmHg 69%
03:00 +14°C° 0 mm 1 mps 749 mmHg 74%
04:00 +14°C° 0 mm 1 mps 749 mmHg 78%
05:00 +16°C° 0 mm 1 mps 749 mmHg 76%
06:00 +19°C° 0 mm 1 mps 749 mmHg 74%
07:00 +21°C° 0 mm 1 mps 749 mmHg 72%
08:00 +23°C° 0 mm 1 mps 748 mmHg 67%
09:00 +25°C° 0 mm 2 mps 748 mmHg 61%
10:00 +27°C° 0 mm 2 mps 748 mmHg 55%
11:00 +28°C° 0 mm 2 mps 748 mmHg 53%
12:00 +29°C° 0 mm 2 mps 747 mmHg 52%
13:00 +30°C° 0 mm 2 mps 747 mmHg 50%
14:00 +30°C° 0 mm 2 mps 746 mmHg 49%
15:00 +30°C° 0 mm 2 mps 746 mmHg 48%
16:00 +30°C° 0 mm 2 mps 746 mmHg 47%
17:00 +29°C° 0.1 mm 2 mps 746 mmHg 55%
18:00 +27°C° 0.1 mm 3 mps 745 mmHg 64%
19:00 +25°C° 0.1 mm 4 mps 745 mmHg 72%
20:00 +22°C° 0.8 mm 3 mps 745 mmHg 80%
21:00 +20°C° 0.8 mm 2 mps 745 mmHg 88%
22:00 +18°C° 0.8 mm 2 mps 745 mmHg 96%
23:00 +19°C° 0 mm 1 mps 745 mmHg 96%

25 June, Friday

Time Temperature Precipitation Wind Pressure Humidity
00:00 +18°C° 0 mm 1 mps 745 mmHg 95%
01:00 +18°C° 0 mm 1 mps 745 mmHg 95%
02:00 +18°C° 0 mm 1 mps 745 mmHg 95%
03:00 +16°C° 0 mm 0 mps 745 mmHg 95%
04:00 +16°C° 0 mm 0 mps 745 mmHg 95%
05:00 +19°C° 0 mm 1 mps 745 mmHg 92%
06:00 +20°C° 0 mm 1 mps 745 mmHg 89%
07:00 +22°C° 0 mm 1 mps 745 mmHg 86%
08:00 +24°C° 0 mm 1 mps 745 mmHg 78%
09:00 +26°C° 0 mm 1 mps 744 mmHg 69%
10:00 +28°C° 0 mm 1 mps 744 mmHg 60%
11:00 +29°C° 0.1 mm 2 mps 744 mmHg 55%
12:00 +31°C° 0.1 mm 2 mps 744 mmHg 51%
13:00 +32°C° 0.1 mm 2 mps 743 mmHg 46%
14:00 +31°C° 0.1 mm 2 mps 743 mmHg 51%
15:00 +29°C° 0.1 mm 2 mps 743 mmHg 57%
16:00 +28°C° 0.1 mm 2 mps 742 mmHg 62%
17:00 +28°C° 0.1 mm 1 mps 742 mmHg 65%
18:00 +28°C° 0.1 mm 1 mps 742 mmHg 68%
19:00 +28°C° 0.1 mm 1 mps 742 mmHg 70%
20:00 +26°C° 0.2 mm 1 mps 742 mmHg 77%
21:00 +24°C° 0.2 mm 2 mps 742 mmHg 83%
22:00 +21°C° 0.2 mm 2 mps 742 mmHg 89%
23:00 +21°C° 1.2 mm 2 mps 742 mmHg 92%

26 June, Saturday

Time Temperature Precipitation Wind Pressure Humidity
00:00 +21°C° 1.2 mm 1 mps 742 mmHg 94%
01:00 +20°C° 1.2 mm 1 mps 742 mmHg 96%
02:00 +20°C° 0.1 mm 1 mps 742 mmHg 97%
03:00 +20°C° 0.1 mm 1 mps 742 mmHg 97%
04:00 +20°C° 0.1 mm 1 mps 742 mmHg 98%
05:00 +21°C° 0 mm 1 mps 742 mmHg 95%
06:00 +20°C° 0 mm 2 mps 742 mmHg 92%
07:00 +21°C° 0 mm 2 mps 742 mmHg 89%
08:00 +21°C° 0.1 mm 3 mps 743 mmHg 86%
09:00 +22°C° 0.1 mm 3 mps 743 mmHg 82%
10:00 +22°C° 0.1 mm 3 mps 743 mmHg 78%
11:00 +22°C° 0.1 mm 3 mps 743 mmHg 74%
12:00 +22°C° 0.1 mm 3 mps 743 mmHg 70%
13:00 +22°C° 0.1 mm 3 mps 744 mmHg 66%
14:00 +22°C° 0 mm 3 mps 744 mmHg 67%
15:00 +22°C° 0 mm 3 mps 744 mmHg 68%
16:00 +21°C° 0 mm 3 mps 744 mmHg 70%
17:00 +21°C° 0.1 mm 3 mps 744 mmHg 73%
18:00 +20°C° 0.1 mm 2 mps 744 mmHg 77%
19:00 +19°C° 0.1 mm 2 mps 744 mmHg 81%
20:00 +19°C° 0 mm 2 mps 744 mmHg 84%
21:00 +18°C° 0 mm 2 mps 745 mmHg 86%
22:00 +17°C° 0 mm 2 mps 745 mmHg 89%
23:00 +18°C° 0 mm 1 mps 745 mmHg 90%

27 June, Sunday

Time Temperature Precipitation Wind Pressure Humidity
00:00 +18°C° 0 mm 1 mps 744 mmHg 90%
01:00 +16°C° 0 mm 1 mps 744 mmHg 90%
02:00 +16°C° 0 mm 1 mps 744 mmHg 90%
03:00 +16°C° 0 mm 1 mps 744 mmHg 90%
04:00 +16°C° 0 mm 1 mps 745 mmHg 90%
05:00 +16°C° 0 mm 1 mps 745 mmHg 88%
06:00 +18°C° 0 mm 1 mps 745 mmHg 87%
07:00 +18°C° 0 mm 1 mps 745 mmHg 85%
08:00 +19°C° 0 mm 1 mps 745 mmHg 81%
09:00 +18°C° 0 mm 2 mps 745 mmHg 77%
10:00 +19°C° 0 mm 2 mps 744 mmHg 73%
11:00 +19°C° 0 mm 2 mps 744 mmHg 70%
12:00 +20°C° 0 mm 3 mps 744 mmHg 67%
13:00 +21°C° 0 mm 3 mps 744 mmHg 64%
14:00 +21°C° 0 mm 3 mps 744 mmHg 59%
15:00 +21°C° 0 mm 3 mps 744 mmHg 54%
16:00 +22°C° 0 mm 3 mps 744 mmHg 49%
17:00 +21°C° 0 mm 3 mps 744 mmHg 55%
18:00 +20°C° 0 mm 3 mps 744 mmHg 61%
19:00 +18°C° 0 mm 4 mps 744 mmHg 68%
20:00 +17°C° 0 mm 3 mps 744 mmHg 74%
21:00 +15°C° 0 mm 2 mps 744 mmHg 80%
22:00 +13°C° 0 mm 2 mps 744 mmHg 87%
23:00 +13°C° 0 mm 2 mps 744 mmHg 87%
Show more

We Need Your Consent

Meteoprog and our Service Providers may store and access personal data such as cookies, device identifiers or other similar technologies on your device and process such data to personalise content and ads, as well as provide social media features and to analyse the traffic.

  • Store and/or access information on your device

    Cookies, device identifiers or other information can be stored or accessed on your device for the purposes indicated above.

  • Personalised ads and content, ad and content measurement, audience insights, and products development

    Ads and content can be personalised based on a profile. More data can be added to better personalise ads and content. Ad and content performance can be measured. Insights about the audience who saw the ads and content can be derived. Such data can be used to develop or improve user’s experience, systems and software.

By clicking ‘I Agree’ you will allow the use of indicated cookies, device identifiers, web beacons or other similar technologies. Your settings can be changed in the browser on your device.

For certain purposes, legitimate interests may be relied on, rather than consent. You can read more about this in our Privacy and Cookie Policy.